Regional Weather Roundup
Issued by NWS Memphis, TN

Home | Current Version | Previous Version | Text Only | Print | Product List | Glossary On
Versions: 1 2 3 4 5 6 7 8 9 10 11 12 13 14 15 16 17 18 19 20 21 22 23 24 25 26 27 28 29 30 31 32 33 34 35 36 37 38 39 40 41 42 43 44 45 46 47 48 49 50
000
ASUS44 KMEG 200700
RWRMEG
MEMPHIS CWA HOURLY WEATHER ROUNDUP
NATIONAL WEATHER SERVICE MEMPHIS TN
100 AM CST FRI JAN 20 2017

...WEST TENNESSEE...

CITY           SKY/WX    TMP DP  RH WIND       PRES   REMARKS
MEMPHIS INTL   CLOUDY    57  56  96 S10G17    29.71F
NWS MEMPHIS      N/A     57 N/A N/A MISG        N/A
JACKSON        CLOUDY    57  56  96 SW13G20   29.71S
DYERSBURG      CLOUDY    55  52  88 W13       29.70R
UNION CITY     CLOUDY   N/A N/A N/A SW15      29.67S
PARIS          CLOUDY    54  54 100 SW14      29.68S


...EASTERN ARKANSAS...

CITY           SKY/WX    TMP DP  RH WIND       PRES   REMARKS
JONESBORO      CLOUDY    54  52  93 SW12      29.69S
WEST MEMPHIS   CLOUDY    55  55 100 S9        29.70S
BATESVILLE     CLOUDY    52  48  87 S9        29.68F
NEWPORT        CLOUDY    53  51  93 SW9       29.69S
WALNUT RIDGE   CLOUDY    52  48  87 SW13      29.67F
BLYTHEVILLE    CLOUDY    54  53  97 SW14      29.70S
STUTTGART      MOCLDY    55  48  76 S10       29.70F
PINE BLUFF     MOCLDY    53  53 100 S5        29.70F
MONTICELLO     CLOUDY    59  57  93 S9        29.71F


...NORTH MISSISSIPPI...

CITY           SKY/WX    TMP DP  RH WIND       PRES   REMARKS
TUPELO         CLOUDY    56  55  97 SW6       29.75R
OXFORD         PTCLDY    54  54 100 S7        29.75F
TUNICA         MOCLDY    54  52  94 S5        29.72F
CLARKSDALE     CLOUDY    57  57 100 S6        29.73S
GREENWOOD      PTCLDY    54  52  93 S6        29.75F
STARKVILLE     MOCLDY    55  55 100 SW3       29.78S
GOLDEN TRIANGL CLOUDY    57  55  94 SW7       29.73R


...SOUTHEAST MISSOURI...

CITY           SKY/WX    TMP DP  RH WIND       PRES   REMARKS
KENNETT        FOG       54  54 100 SW10      29.68R VSB 1
WEST PLAINS    CLOUDY    49  48  97 SW6       29.65S
POPLAR BLUFF   CLOUDY    50  50 100 SW9       29.65F FOG
CAPE GIRARDEAU CLOUDY    52  51  97 SW10      29.64S FOG


...NORTHWEST ALABAMA...

CITY           SKY/WX    TMP DP  RH WIND       PRES   REMARKS
MUSCLE SHOALS  CLEAR     54  52  93 S3        29.74S


...MIDDLE TENNESSEE...

CITY           SKY/WX    TMP DP  RH WIND       PRES   REMARKS
NASHVILLE      CLOUDY    57  55  93 S5        29.70R
CLARKSVILLE    CLOUDY    56  54  93 CALM      29.66F
COLUMBIA       CLEAR    N/A N/A N/A S5        29.69R


...WESTERN KENTUCKY...

CITY           SKY/WX    TMP DP  RH WIND       PRES   REMARKS
PADUCAH        MOCLDY    56  53  90 SW6       29.65R
FORT CAMPBELL  MOCLDY    54  54 100 SW6       29.66R


...CENTRAL ARKANSAS...

CITY           SKY/WX    TMP DP  RH WIND       PRES   REMARKS
LITTLE ROCK    CLOUDY    54  54 100 S9        29.68F


SKY/WX REPORTED AS FAIR MEANS FEW OR NO CLOUDS BELOW
12 THOUSAND FEET.




USA.gov is the U.S. government's official web portal to all federal, state and local government web resources and services.